This is the latest recevied weather packets stored in our database for station/object SA7AHC. If no packets are shown the sender has not sent any weather packets the latest 10 day(s).
| Time | Temp. | Humidity | Pressure | Rain* | Wind** | Luminosity | Snow |
|---|---|---|---|---|---|---|---|
| 1787873595 | 11.67° C | 96% | 1023.3 hPa | 0 mm | - | 0 W/m² | - |
| 1787872990 | 11.67° C | 96% | 1023.3 hPa | 0 mm | - | 0 W/m² | - |
| 1787872389 | 12.22° C | 96% | 1023.4 hPa | 0 mm | - | 0 W/m² | - |
| 1787871782 | 12.22° C | 96% | 1023.5 hPa | 0 mm | - | 0 W/m² | - |
| 1787871182 | 12.22° C | 96% | 1023.5 hPa | 0 mm | - | 0 W/m² | - |
| 1787870582 | 12.22° C | 96% | 1023.5 hPa | 0 mm | - | 0 W/m² | - |
| 1787869981 | 11.67° C | 95% | 1023.4 hPa | 0 mm | - | 0 W/m² | - |
| 1787869381 | 11.67° C | 95% | 1023.7 hPa | 0 mm | - | 0 W/m² | - |
| 1787868782 | 11.67° C | 94% | 1023.7 hPa | 0 mm | - | 0 W/m² | - |
| 1787868178 | 11.11° C | 93% | 1023.8 hPa | 0 mm | - | 0 W/m² | - |
| 1787867575 | 11.11° C | 93% | 1023.7 hPa | 0 mm | - | 0 W/m² | - |
| 1787866967 | 11.11° C | 92% | 1023.7 hPa | 0 mm | - | 0 W/m² | - |
| 1787866370 | 11.11° C | 91% | 1023.8 hPa | 0 mm | - | 0 W/m² | - |
| 1787865761 | 11.11° C | 91% | 1023.9 hPa | 0 mm | - | 0 W/m² | - |
| 1787865162 | 11.11° C | 90% | 1023.9 hPa | 0 mm | - | 0 W/m² | - |
| 1787864562 | 11.67° C | 90% | 1024 hPa | 0 mm | - | 0 W/m² | - |
| 1787863959 | 11.67° C | 89% | 1024.1 hPa | 0 mm | - | 0 W/m² | - |
| 1787863356 | 11.67° C | 88% | 1024.1 hPa | 0 mm | - | 0 W/m² | - |
| 1787862749 | 11.67° C | 87% | 1024.2 hPa | 0 mm | - | 0 W/m² | - |
| 1787862150 | 11.67° C | 86% | 1024 hPa | 0 mm | - | 0 W/m² | - |
| 1787861551 | 12.22° C | 86% | 1024 hPa | 0 mm | - | 0 W/m² | - |
| 1787860949 | 12.22° C | 84% | 1024 hPa | 0 mm | - | 0 W/m² | - |
| 1787860349 | 12.22° C | 83% | 1024.1 hPa | 0 mm | - | 0 W/m² | - |
| 1787859749 | 12.78° C | 82% | 1024.1 hPa | 0 mm | - | 0 W/m² | - |
| 1787859149 | 12.78° C | 81% | 1024.5 hPa | 0 mm | - | 0 W/m² | - |
* Rain latest hour (hover to see other rain measurements)
** Current wind speed in m/s (hover to see current wind gust speed)